Weather Roundup
Issued by NWS Chicago, IL

Home | Current Version | Previous Version | Graphics & Text | Print | Product List | Glossary On
Versions: 1 2 3 4 5 6 7 8 9 10 11 12 13 14 15 16 17 18 19 20 21 22 23 24 25 26 27 28 29 30 31 32 33 34 35 36 37 38 39 40 41 42 43 44 45 46 47 48 49 50
000
NZUS59 KLOT 021608
HRRLOT

CHICAGO AREA WEATHER ROUNDUP
NATIONAL WEATHER SERVICE CHICAGO/ROMEOVILLE IL
1100 AM CDT WED SEP 02 2015

NOTE: "FAIR" INDICATES FEW OR NO CLOUDS BELOW 12,000 FEET WITH NO
SIGNIFICANT WEATHER AND/OR OBSTRUCTIONS TO VISIBILITY.

* THESE STATIONS ARE NOT UNDER NWS QUALITY CONTROL. THEY ALSO MAY NOT
  REPORT WEATHER SUCH AS PRECIPITATION OR FOG.

ILZ005-006-012>014-019>023-021700-
NORTHEAST ILLINOIS

CITY           SKY/WX    TMP DP  RH WIND       PRES   REMARKS
OHARE          MOSUNNY   84  70  62 W6        30.05F HX  88
MIDWAY         MOSUNNY   85  70  60 VRB3      30.05F HX  89
AURORA         SUNNY     84  72  67 SW8       30.06F HX  89
LANSING*       SUNNY     84  71  63 SW3       30.07F HX  88
JOLIET*        SUNNY     85  73  67 W5        30.06F HX  92
WAUKEGAN       MOSUNNY   83  70  64 SW6       30.03F HX  87
DUPAGE AIRPORT SUNNY     83  71  67 SW5       30.05F HX  87
WHEELING       SUNNY     84  68  58 VRB6      30.05F HX  87
KANKAKEE*      SUNNY     86  73  64 SW8       30.09S HX  93
MORRIS*        SUNNY     84  73  69 SW7       30.06S HX  90
LEWIS AIRPORT* SUNNY     83  70  65 SW8       30.07S HX  87
NORTHERLY IS     N/A     83  67  58 S6          N/A  HX  85
$$

WIZ051-052-058>065-066-070>072-021700-
SOUTHEAST WISCONSIN

CITY           SKY/WX    TMP DP  RH WIND       PRES   REMARKS
MILWAUKEE      MOSUNNY   84  70  62 SW6       30.02F HX  88
KENOSHA*       SUNNY     84  71  65 SW8       30.03F HX  89
RACINE*        SUNNY     85  69  58 VRB6      30.04F HX  89
BURLINGTON     SUNNY     82  68  63 SW3       30.03F HX  84
WEST BEND      SUNNY     82  68  61 SW3       30.01F HX  85
$$

INZ001>003-010>013-019-020-021700-
NORTHWEST INDIANA

CITY           SKY/WX    TMP DP  RH WIND       PRES   REMARKS
GARY*          SUNNY     84  68  58 CALM      30.07F HX  87
MICHIGAN CITY* NOT AVBL
RENSSELAER*    NOT AVBL
VALPARAISO     SUNNY     84  71  65 SW5       30.08F HX  89
$$

LMZ740>746-021700-
SOUTHERN LAKE MICHIGAN

STATION/POSITION TIME  SKY/WX   TEMP WIND        PRES    VSBY
                                AIR  DIR/SP/G
                 (UTC)          (F)  (DEG/KT/KT) (MB)    (MI)
HARRISON CRIB    1500            77  200/  7/  8   N/A
BURNHAM HARBOR   1600            84  160/  3/  8   N/A
CALUMET HARBOR   1500            80  200/  4/  6   N/A
BURNS HARBOR     1500            79  240/  7/  8 1019.0S
MICHIGAN CITY    1500            77  210/  9/  9   N/A
$$

ABBREVIATIONS USED IN REMARKS
   TC - TEMPERATURE IN CELSIUS
  WCI - WIND CHILL INDEX
   HX - HEAT INDEX
  VSB - VISIBILITY
$$


USA.gov is the U.S. government's official web portal to all federal, state and local government web resources and services.